Tracking 25648 objects as of 18-May-2022
HD Live streaming from Space Station
objects crossing your sky now

AALTO 1

Track AALTO 1 now!
10-day predictions
AALTO 1 is classified as:


NORAD ID: 42775
Int'l Code: 2017-036L
Perigee: 487.5 km
Apogee: 507.4 km
Inclination: 97.2 °
Period: 94.4 minutes
Semi major axis: 6868 km
RCS: Unknown
Launch date: June 23, 2017
Source: (FIN)
Launch site: SRIHARIKOTA (SRI)

Uplink (MHz):
Downlink (MHz): 437.220/2402.000
Beacon (MHz): 437.220
Mode: 9600bps FSK CW
Call sign: OH2A1S
Status: Active

aabbcc
Your satellite tracking list
Your tracking list is empty




NASA's NSSDC Master Catalog

Two Line Element Set (TLE):
1 42775U 17036L   22137.53691583  .00011079  00000-0  44302-3 0  9991
2 42775  97.1997 176.4418 0014459  79.2186 281.0680 15.25166211272068
Source of the keplerian elements: AMSAT